Regional Weather Roundup
Issued by NWS Sterling, VA

Current Version | Previous Version | Text Only | Print | Product List | Glossary On
Versions: 1 2 3 4 5 6 7 8 9 10 11 12 13 14 15 16 17 18 19 20 21 22 23 24 25 26 27 28 29 30 31 32 33 34 35 36 37 38 39 40 41 42 43 44 45 46 47 48 49 50
000
ASUS41 KLWX 271910
RWRLWX

REGIONAL WEATHER ROUNDUP
NATIONAL WEATHER SERVICE BALTIMORE MD/WASHINGTON DC
300 PM EDT MON MAR 27 2017

Note: "FAIR" indicates few or no clouds below 12,000 feet
with no significant weather and/or obstructions to visibility.
 TC=TEMPERATURE CELSIUS

 * =Non NWS site. Station does not report precipitation (e.g. rain,
    snow, etc.), thunder, or fog.

DCZ001-MDZ009-015-VAZ040>042-051-053>054-272000-
WASHINGTON METRO

CITY           SKY/WX    TMP DP  RH WIND       PRES   REMARKS
WASHINGTON NAT PTSUNNY   69  57  65 SE3       29.99F
DULLES         MOSUNNY   71  56  58 VRB5      29.98F
ANDREWS AFB    SUNNY     71  56  60 W7        29.98F
FT BELVOIR     SUNNY     74  57  55 SE5       29.97F
QUANTICO       PTSUNNY   66  57  72 S8        29.98F
COLLEGE PARK*  SUNNY     66  54  63 S3        29.99F
LEESBURG*      MOSUNNY   68  59  73 CALM      30.00F
MANASSAS*        N/A    N/A N/A N/A SW9       29.97F

$$

MDZ006>007-011-014-272000-
BALTIMORE METRO

CITY           SKY/WX    TMP DP  RH WIND       PRES   REMARKS
BWI AIRPORT    MOSUNNY   67  56  67 W5        30.00F
MD SCIENCE CTR   N/A     62  51  67 MISG      30.01F
MARTIN STATE   PTSUNNY   57  55  94 E3        30.03F
ANNAPOLIS      SUNNY     61  53  75 SE8       30.00F
FORT MEADE*    SUNNY     66  54  63 CALM      30.02F

$$

MDZ012-015-019>023-272000-
MARYLAND EASTERN SHORE

CITY           SKY/WX    TMP DP  RH WIND       PRES   REMARKS
OCEAN CITY     CLOUDY    64  53  67 S8G17     30.03F
SALISBURY      SUNNY     73  58  59 S16G23    30.01F
BAY BRIDGE AP* SUNNY     63  54  72 CALM      30.01F HAZE
CAMBRIDGE*     SUNNY     72  57  60 SW10G16   30.00F
EASTON*        MOSUNNY   73  57  56 W9        30.03F

$$

MDZ017>025-272000-
SOUTHERN MARYLAND

CITY           SKY/WX    TMP DP  RH WIND       PRES   REMARKS
PATUXENT RIVER PTSUNNY   75  60  59 SW16      29.99F
ST INIGOES     SUNNY     74  57  55 SW16      29.99F
LEONARDTOWN*   SUNNY     73  55  53 SW9       30.00F

$$

MDZ003>005-272000-
NORTH CENTRAL MARYLAND

CITY           SKY/WX    TMP DP  RH WIND       PRES   REMARKS
FREDERICK*     MOSUNNY   64  61  88 SW5       30.02F
HAGERSTOWN APT SUNNY     61  55  81 SE5       29.97F
WESTMINSTER*   PTSUNNY   64  57  77 SW7       29.99F

$$

MDZ501>502-272000-
WESTERN MARYLAND

CITY           SKY/WX    TMP DP  RH WIND       PRES   REMARKS
OAKLAND*       MOSUNNY   61  48  63 W12G21    30.01F
CUMBERLAND*    CLOUDY    68  55  64 CALM      30.00F

$$

VAZ025>031-272000-
SHENANDOAH VALLEY

CITY           SKY/WX    TMP DP  RH WIND       PRES   REMARKS
WINCHESTER*    CLOUDY    64  54  68 E3        29.97F
FRONT ROYAL*   CLOUDY    68  55  64 NE6       29.95F
LURAY*         PTSUNNY   73  54  49 S8G16     29.96F
NEW MARKET*    PTSUNNY   75  53  45 SW8       29.95F
STAUNTON*      PTSUNNY   77  51  40 W14G21    29.99F
WAYNESBORO*    MOSUNNY   72  53  51 SW9       29.99F

$$

WVZ021-048>050-054>055-272000-
EASTERN WEST VIRGINIA PANHANDLE

CITY           SKY/WX    TMP DP  RH WIND       PRES   REMARKS
MARTINSBURG    SUNNY     66  55  67 CALM      29.97F
PETERSBURG*    PTSUNNY   73  55  51 SE3       29.95F

$$

VAZ036>039-050-272000-
CENTRAL FOOTHILLS

CITY           SKY/WX    TMP DP  RH WIND       PRES   REMARKS
CHARLOTTESVILL SUNNY     77  57  50 S13       29.97F
CULPEPER*      SUNNY     76  58  52 SW10      29.97F
ORANGE*        SUNNY     73  55  53 S9G18     29.99F
GORDONSVILLE*  SUNNY     76  58  54 SW12      29.97F
WARRENTON*     MOSUNNY   77  53  42 SW10      29.97F

$$

VAZ055>057-272000-
NORTH AND CENTRAL PIEDMONT

CITY           SKY/WX    TMP DP  RH WIND       PRES   REMARKS
FREDERICKSBRG* SUNNY     77  57  49 SW10G20   29.97F
STAFFORD*      SUNNY     76  57  51 S10G17    30.01F

$$

NCZ024-NYZ072-PAZ021-071-VAZ022-071-272000-
OTHER REGIONAL OBSERVATIONS

CITY           SKY/WX    TMP DP  RH WIND       PRES   REMARKS
NEW YORK CITY  CLOUDY    51  45  79 NW3       30.04F HAZE
PHILADELPHIA   CLOUDY    55  51  86 SW8       30.02F
PITTSBURGH     MOSUNNY   66  49  54 VRB6G17   29.94F
ROANOKE        PTSUNNY   78  46  32 W8        29.99F
RICHMOND       CLOUDY    77  58  51 SW9G18    30.00F
RALEIGH        PTSUNNY   75  59  57 SW10      30.05F

$$

ANZ530>537-272000-
MARINE OBSERVATIONS

STATION/POSITION TIME  TEMP    WIND        PRES
                       AIR SEA DIR/SP/G
                 (UTC) (F)     (DEG/KT/KT) (MB)
THOMAS PT LIGHT  1900   48 46   40/  9/  9   N/A
BALT KEY BRIDGE  1848   49     140/  7/  8 1016.3F
COVE POINT       1848   52     180/ 13/ 16 1016.2F
LEWISETTA        1848   71 52  250/ 14/ 20 1015.7F
SOLOMONS ISLAND  1848   67 48  210/ 13/ 15   N/A
PINEY POINT      1848          240/  7/  9   N/A

$$




USA.gov is the U.S. government's official web portal to all federal, state and local government web resources and services.